Miscellaneous Local Product
Issued by NWS Hastings, NE

Home | Current Version | Previous Version | Text Only | Print | Product List | Glossary Off
Versions: 1 2 3 4 5 6 7 8 9 10 11 12 13 14 15 16 17 18 19 20 21 22 23 24 25 26 27 28 29 30 31 32 33 34 35 36 37 38 39 40 41 42 43 44 45 46 47 48 49 50

000
AXUS43 KGID 290402
MISGRI

GID CWA HOURLY WEATHER ROUNDUP
NATIONAL WEATHER SERVICE HASTINGS NE
1100 PM CDT TUE OCT 28 2014

NOTE: "FAIR" INDICATES FEW OR NO CLOUDS BELOW 12,000 FEET WITH NO
SIGNIFICANT WEATHER AND/OR OBSTRUCTIONS TO VISIBILITY.

...SOUTH CENTRAL NEBRASKA...

CITY           SKY/WX    TMP DP  RH WIND       PRES   REMARKS
GRAND ISLAND   CLEAR     37  27  67 W3        30.20R
HASTINGS       CLEAR     40  25  55 W3        30.19R
KEARNEY        CLEAR     37  21  52 CALM      30.20R
ORD            CLEAR     30  23  75 SW8       30.18R WCI  22
YORK           CLEAR     36  30  80 NW3       30.19R
AURORA         CLEAR     36  26  65 NW7       30.19R WCI  31
LEXINGTON      CLEAR     30  24  75 CALM      30.20R
HOLDREGE       CLEAR     35  23  61 CALM      30.20R
HEBRON         CLEAR     38  28  69 CALM      30.19R

...NEBRASKA PANHANDLE...

CITY           SKY/WX    TMP DP  RH WIND       PRES   REMARKS
CHADRON        CLEAR     25  20  81 SW6       30.17R WCI  18
ALLIANCE       CLEAR     31  23  72 CALM      30.17R
SCOTTSBLUFF    CLEAR     36  28  73 S7        30.17R WCI  30
SIDNEY         CLEAR     28  21  75 S6        30.19R WCI  22

...WESTERN AND NORTH CENTRAL NEBRASKA...

CITY           SKY/WX    TMP DP  RH WIND       PRES   REMARKS
VALENTINE      CLEAR     27  22  81 W5        30.19R WCI  22
AINSWORTH      CLEAR     33  23  68 W6        30.18R WCI  27
ONEILL         CLEAR     36  29  78 NW5       30.18R WCI  32
BROKEN BOW     CLEAR     30  20  66 CALM      30.19R
IMPERIAL       PTCLDY    39  23  52 SW3       30.20R
NORTH PLATTE   CLEAR     30  22  72 CALM      30.20R
MCCOOK         PTCLDY    34  26  72 W3        30.20R

...EASTERN NEBRASKA...

CITY           SKY/WX    TMP DP  RH WIND       PRES   REMARKS
NORFOLK        CLEAR     35  30  82 W7        30.17R WCI  29
SO SIOUX CITY  CLOUDY    44  33  65 W6        30.15R
TEKAMAH        CLEAR     36  30  79 W6        30.16S WCI  31
COLUMBUS       CLEAR     34  25  69 CALM      30.19S
ALBION         CLEAR     30  25  81 NW3       30.18S
OMAHA EPPLEY   CLEAR     40  33  76 NW5       30.18R
OFFUTT AFB     CLEAR     41  34  75 NW6       30.16R
MILLARD        CLEAR     44  32  63 NW6       30.17R
LINCOLN        CLEAR     35  30  82 N5        30.19R WCI  31
NEBRASKA CITY  CLEAR     43  27  54 N6        30.16S
BEATRICE       CLEAR     36  30  78 CALM      30.18R
FALLS CITY     CLEAR     44  31  60 W6        30.15R

...NORTHERN KANSAS...

CITY           SKY/WX    TMP DP  RH WIND       PRES   REMARKS
GOODLAND       CLEAR     37  24  59 S9        30.22R WCI  30
HILL CITY      CLEAR     35  26  69 NW5       30.20R WCI  31
PHILLIPSBURG   CLEAR     43  28  56 NW8       30.20R
SMITH CENTER   CLEAR     45  25  45 N8        30.20R
BELOIT         CLEAR     39  32  75 N6        30.18R WCI  35
HAYS           PTCLDY    39  28  65 W5        30.19R
RUSSELL        CLEAR     42  31  64 SW5       30.17R
CONCORDIA      CLEAR     45  32  60 CALM      30.18R
SALINA         CLEAR     46  34  62 CALM      30.18R
TOPEKA         CLEAR     45  41  86 N3        30.16R



USA.gov is the U.S. government's official web portal to all federal, state and local government web resources and services.